TimeEST,TemperatureF,Dew PointF,Humidity,Sea Level PressureIn,VisibilityMPH,Wind Direction,Wind SpeedMPH,Gust SpeedMPH,PrecipitationIn,Events,Conditions,WindDirDegrees,DateUTC
12:06 AM,33.8,26.6,75,29.46,6.0,WSW,21.9,36.8,0.00,Snow,Light Snow,240,2012-12-21 05:06:00
12:19 AM,35.6,24.8,65,29.46,9.0,WSW,29.9,43.7,0.00,,Overcast,240,2012-12-21 05:19:00
12:26 AM,33.8,24.8,70,29.46,10.0,WSW,28.8,41.4,0.00,,Overcast,240,2012-12-21 05:26:00
12:53 AM,34.0,25.0,70,29.47,10.0,SW,26.5,36.8,0.00,,Overcast,230,2012-12-21 05:53:00
1:06 AM,33.8,24.8,70,29.46,10.0,WSW,20.7,39.1,N/A,,Overcast,240,2012-12-21 06:06:00
1:31 AM,33.8,24.8,70,29.46,9.0,WSW,25.3,40.3,0.00,Snow,Light Snow,240,2012-12-21 06:31:00
1:53 AM,33.1,25.0,72,29.48,6.0,WSW,23.0,34.5,0.00,Snow,Light Snow,240,2012-12-21 06:53:00
2:14 AM,32.0,24.8,75,29.47,3.0,WSW,19.6,28.8,0.00,Snow,Light Snow,240,2012-12-21 07:14:00
2:53 AM,32.0,25.0,75,29.49,8.0,WSW,19.6,29.9,0.00,Snow,Light Snow,240,2012-12-21 07:53:00
3:53 AM,32.0,25.0,75,29.48,10.0,WSW,19.6,36.8,0.00,,Overcast,240,2012-12-21 08:53:00
4:53 AM,30.9,24.1,76,29.48,8.0,WSW,24.2,34.5,0.00,Snow,Light Snow,250,2012-12-21 09:53:00
5:22 AM,30.2,24.8,80,29.47,2.0,WSW,21.9,33.4,0.00,Snow,Light Snow,250,2012-12-21 10:22:00
5:31 AM,30.2,24.8,80,29.47,1.5,WSW,20.7,35.7,0.00,Snow,Light Snow,240,2012-12-21 10:31:00
5:53 AM,30.0,24.1,79,29.48,2.0,WSW,24.2,35.7,0.00,Snow,Light Snow,250,2012-12-21 10:53:00
6:00 AM,30.2,24.8,80,29.47,2.5,WSW,20.7,32.2,0.00,Snow,Light Snow,250,2012-12-21 11:00:00
6:09 AM,30.2,24.8,80,29.47,5.0,WSW,19.6,34.5,0.00,Snow,Light Snow,250,2012-12-21 11:09:00
6:53 AM,28.9,24.1,82,29.48,1.2,WSW,25.3,36.8,0.00,Snow,Light Snow,250,2012-12-21 11:53:00
7:23 AM,28.4,24.8,86,29.48,1.0,WSW,24.2,33.4,0.00,Snow,Light Snow,250,2012-12-21 12:23:00
7:45 AM,28.4,24.8,86,29.48,1.5,WSW,23.0,35.7,0.00,Snow,Light Snow,250,2012-12-21 12:45:00
7:53 AM,28.9,24.1,82,29.49,1.2,West,21.9,32.2,0.00,Snow,Light Snow,260,2012-12-21 12:53:00
8:00 AM,28.4,24.8,86,29.48,1.5,West,23.0,33.4,0.00,Snow,Light Snow,260,2012-12-21 13:00:00
8:12 AM,28.4,24.8,86,29.49,0.8,West,20.7,32.2,0.00,Snow,Light Snow,260,2012-12-21 13:12:00
8:22 AM,28.4,24.8,86,29.49,1.0,West,24.2,34.5,0.00,Snow,Light Snow,260,2012-12-21 13:22:00
8:49 AM,28.4,24.8,86,29.50,0.8,West,21.9,34.5,0.00,Snow,Light Snow,260,2012-12-21 13:49:00
8:53 AM,28.9,24.1,82,29.52,1.0,West,21.9,34.5,0.00,Snow,Light Snow,270,2012-12-21 13:53:00
9:01 AM,28.4,24.8,86,29.50,1.5,West,21.9,34.5,0.00,Snow,Light Snow,260,2012-12-21 14:01:00
9:10 AM,28.4,24.8,86,29.51,0.8,West,25.3,33.4,0.00,Snow,Light Snow,260,2012-12-21 14:10:00
9:53 AM,30.0,25.0,82,29.54,0.8,West,21.9,31.1,0.00,Snow,Light Snow,260,2012-12-21 14:53:00
9:59 AM,30.2,24.8,80,29.52,1.2,West,21.9,32.2,0.00,Snow,Light Snow,270,2012-12-21 14:59:00
10:23 AM,30.2,24.8,80,29.54,2.5,West,23.0,34.5,0.00,Snow,Light Snow,270,2012-12-21 15:23:00
10:31 AM,30.2,24.8,80,29.55,4.0,West,23.0,34.5,0.00,Snow,Light Snow,270,2012-12-21 15:31:00
10:48 AM,30.2,24.8,80,29.55,2.5,West,20.7,28.8,0.00,Snow,Light Snow,260,2012-12-21 15:48:00
10:49 AM,30.0,25.0,82,29.57,2.5,West,19.6,29.9,0.00,Snow,Light Snow,270,2012-12-21 15:49:00
10:52 AM,30.2,24.8,80,29.55,1.8,West,20.7,38.0,0.00,Snow,Light Snow,260,2012-12-21 15:52:00
11:15 AM,30.2,26.6,86,29.56,2.5,West,20.7,31.1,0.00,Snow,Light Snow,270,2012-12-21 16:15:00
11:34 AM,30.2,26.6,86,29.56,2.0,West,24.2,33.4,0.00,Snow,Light Snow,270,2012-12-21 16:34:00
11:53 AM,30.9,26.1,82,29.59,2.0,West,25.3,36.8,0.00,Snow,Light Snow,270,2012-12-21 16:53:00
12:06 PM,30.2,26.6,86,29.57,1.5,West,21.9,32.2,0.00,Snow,Light Snow,270,2012-12-21 17:06:00
12:40 PM,30.2,24.8,80,29.57,1.0,West,18.4,33.4,0.00,Snow,Light Snow,270,2012-12-21 17:40:00
12:51 PM,30.2,26.6,86,29.58,0.8,West,20.7,31.1,0.00,Snow,Light Snow,270,2012-12-21 17:51:00
12:53 PM,30.0,26.1,85,29.60,0.8,West,20.7,31.1,0.00,Snow,Light Snow,270,2012-12-21 17:53:00
1:21 PM,30.2,26.6,86,29.58,1.0,West,18.4,25.3,0.00,Snow,Light Snow,270,2012-12-21 18:21:00
1:40 PM,30.2,26.6,86,29.58,2.0,West,18.4,28.8,0.01,Snow,Light Snow,270,2012-12-21 18:40:00
1:53 PM,32.0,26.1,79,29.61,1.5,West,23.0,39.1,0.01,Snow,Light Snow,280,2012-12-21 18:53:00
2:53 PM,32.0,26.1,79,29.63,1.2,West,21.9,32.2,0.00,Snow,Light Snow,280,2012-12-21 19:53:00
2:58 PM,32.0,26.6,80,29.62,0.8,West,21.9,33.4,0.00,Snow,Light Snow,280,2012-12-21 19:58:00
3:23 PM,30.2,26.6,86,29.63,1.2,WNW,19.6,34.5,0.00,Snow,Light Snow,290,2012-12-21 20:23:00
3:49 PM,30.2,26.6,86,29.65,2.0,West,24.2,36.8,0.00,Snow,Light Snow,280,2012-12-21 20:49:00
3:53 PM,30.9,26.1,82,29.68,2.0,WNW,24.2,36.8,0.00,Snow,Light Snow,290,2012-12-21 20:53:00
4:02 PM,30.2,26.6,86,29.66,2.5,West,24.2,34.5,0.00,Snow,Light Snow,280,2012-12-21 21:02:00
4:22 PM,30.2,26.6,86,29.68,2.0,West,19.6,35.7,0.00,Snow,Light Snow,270,2012-12-21 21:22:00
4:31 PM,30.2,26.6,86,29.69,1.8,West,21.9,31.1,0.00,Snow,Light Snow,270,2012-12-21 21:31:00
4:53 PM,30.0,26.1,85,29.73,1.2,West,20.7,35.7,0.00,Snow,Light Snow,280,2012-12-21 21:53:00
5:18 PM,30.2,26.6,86,29.72,1.2,West,18.4,29.9,0.00,Snow,Light Snow,270,2012-12-21 22:18:00
5:42 PM,30.2,26.6,86,29.73,2.0,West,19.6,29.9,0.00,Snow,Light Snow,280,2012-12-21 22:42:00
5:49 PM,30.2,26.6,86,29.74,2.5,West,17.3,29.9,0.00,Snow,Light Snow,280,2012-12-21 22:49:00
5:53 PM,30.0,26.1,85,29.77,2.5,West,17.3,28.8,0.00,Snow,Light Snow,280,2012-12-21 22:53:00
6:05 PM,30.2,26.6,86,29.75,1.8,WNW,17.3,28.8,0.00,Snow,Light Snow,290,2012-12-21 23:05:00
6:25 PM,30.2,26.6,86,29.76,2.0,West,18.4,28.8,0.00,Snow,Light Snow,280,2012-12-21 23:25:00
6:28 PM,30.2,26.6,86,29.76,2.5,West,17.3,28.8,0.00,Snow,Light Snow,280,2012-12-21 23:28:00
6:40 PM,30.2,26.6,86,29.77,3.0,West,19.6,29.9,0.00,Snow,Light Snow,280,2012-12-21 23:40:00
6:53 PM,30.9,27.0,85,29.80,2.5,West,15.0,29.9,0.00,Snow,Light Snow,280,2012-12-21 23:53:00
7:03 PM,30.2,26.6,86,29.78,2.0,West,16.1,27.6,0.00,Snow,Light Snow,280,2012-12-22 00:03:00
7:08 PM,30.2,26.6,86,29.78,2.5,WNW,15.0,27.6,0.00,Snow,Light Snow,290,2012-12-22 00:08:00
7:14 PM,30.2,26.6,86,29.78,1.8,West,17.3,24.2,0.00,Snow,Light Snow,280,2012-12-22 00:14:00
7:43 PM,30.2,26.6,86,29.79,1.0,West,19.6,35.7,0.00,Snow,Light Snow,280,2012-12-22 00:43:00
7:53 PM,30.0,26.1,85,29.83,1.8,West,17.3,33.4,0.00,Snow,Light Snow,280,2012-12-22 00:53:00
8:01 PM,30.2,26.6,86,29.81,2.0,West,19.6,31.1,0.00,Snow,Light Snow,280,2012-12-22 01:01:00
8:09 PM,30.2,26.6,86,29.81,3.0,West,18.4,29.9,0.00,Snow,Light Snow,280,2012-12-22 01:09:00
8:18 PM,30.2,26.6,86,29.81,3.0,West,19.6,29.9,0.00,Snow,Light Snow,280,2012-12-22 01:18:00
8:53 PM,30.9,27.0,85,29.85,5.0,West,17.3,27.6,0.00,Snow,Light Snow,280,2012-12-22 01:53:00
9:20 PM,32.0,26.6,80,29.84,10.0,WNW,17.3,28.8,0.00,,Overcast,290,2012-12-22 02:20:00
9:53 PM,32.0,26.1,79,29.88,9.0,WNW,12.7,24.2,0.00,,Overcast,290,2012-12-22 02:53:00
10:26 PM,32.0,26.6,80,29.87,10.0,WNW,15.0,24.2,0.00,,Overcast,290,2012-12-22 03:26:00
10:53 PM,32.0,26.1,79,29.90,10.0,WNW,17.3,25.3,0.00,,Overcast,300,2012-12-22 03:53:00
11:01 PM,32.0,26.6,80,29.88,10.0,WNW,13.8,25.3,N/A,,Overcast,300,2012-12-22 04:01:00
11:11 PM,33.8,26.6,75,29.89,10.0,WNW,16.1,26.5,N/A,,Overcast,290,2012-12-22 04:11:00
11:20 PM,32.0,26.6,80,29.89,10.0,WNW,12.7,24.2,N/A,,Overcast,290,2012-12-22 04:20:00
11:53 PM,32.0,25.0,75,29.93,10.0,WNW,17.3,26.5,0.00,,Overcast,290,2012-12-22 04:53:00